| time (UTC) | temp F | wind direction | speed MPH | gust MPH | rain 1hr in | rain 24hr in | rain mn in | humidity % | barometer mb |
| 20260509214602 | 91 | 228 | 0.0 | 0.0 | 0.00 | 0.00 | 0.00 | 44 | 1007.5 |
| 20260509214059 | 90 | 206 | 0.0 | 0.0 | 0.00 | 0.00 | 0.00 | 44 | 1007.4 |
| 20260509213555 | 90 | 77 | 0.0 | 2.0 | 0.00 | 0.00 | 0.00 | 45 | 1007.2 |
| 20260509213052 | 90 | 185 | 0.0 | 0.0 | 0.00 | 0.00 | 0.00 | 45 | 1007.2 |
| 20260509212549 | 89 | 205 | 0.0 | 0.0 | 0.00 | 0.00 | 0.00 | 45 | 1007.6 |
| 20260509212046 | 88 | 339 | 1.0 | 2.0 | 0.00 | 0.00 | 0.00 | 46 | 1007.5 |
| 20260509211542 | 89 | 357 | 4.0 | 6.0 | 0.00 | 0.00 | 0.00 | 45 | 1007.7 |
| 20260509211039 | 88 | 242 | 0.0 | 0.0 | 0.00 | 0.00 | 0.00 | 44 | 1007.7 |
| 20260509210536 | 89 | 6 | 0.0 | 0.0 | 0.00 | 0.00 | 0.00 | 48 | 1007.8 |
| 20260509210032 | 89 | 21 | 0.0 | 0.0 | 0.00 | 0.00 | 0.00 | 44 | 1007.8 |
| 20260509205526 | 88 | 195 | 0.0 | 0.0 | 0.00 | 0.00 | 0.00 | 43 | 1008.2 |
| 20260509205022 | 87 | 352 | 0.0 | 0.0 | 0.00 | 0.00 | 0.00 | 46 | 1008.2 |
| 20260509204518 | 87 | 310 | 2.0 | 2.0 | 0.00 | 0.00 | 0.00 | 45 | 1008.2 |
| 20260509204015 | 87 | 261 | 0.0 | 1.0 | 0.00 | 0.00 | 0.00 | 46 | 1008.4 |
| 20260509203511 | 88 | 352 | 5.0 | 7.0 | 0.00 | 0.00 | 0.00 | 48 | 1008.1 |
| 20260509203009 | 87 | 294 | 0.0 | 1.0 | 0.00 | 0.00 | 0.00 | 45 | 1008.4 |
| 20260509202503 | 87 | 17 | 3.0 | 6.0 | 0.00 | 0.00 | 0.00 | 43 | 1008.2 |
| 20260509201959 | 89 | 10 | 7.0 | 8.0 | 0.00 | 0.00 | 0.00 | 46 | 1008.6 |
| 20260509201454 | 89 | 215 | 0.0 | 0.0 | 0.00 | 0.00 | 0.00 | 46 | 1008.3 |
| 20260509200952 | 88 | 161 | 0.0 | 0.0 | 0.00 | 0.00 | 0.00 | 48 | 1008.5 |
| 20260509200446 | 88 | 202 | 0.0 | 0.0 | 0.00 | 0.00 | 0.00 | 48 | 1008.6 |
| 20260509195943 | 87 | 238 | 0.0 | 0.0 | 0.00 | 0.00 | 0.00 | 47 | 1008.7 |
| 20260509195433 | 87 | 273 | 0.0 | 0.0 | 0.00 | 0.00 | 0.00 | 48 | 1008.8 |
| 20260509194933 | 87 | 65 | 2.0 | 3.0 | 0.00 | 0.00 | 0.00 | 47 | 1008.7 |
| 20260509194428 | 87 | 309 | 1.0 | 3.0 | 0.00 | 0.00 | 0.00 | 46 | 1008.8 |
| 20260509193926 | 86 | 319 | 2.0 | 3.0 | 0.00 | 0.00 | 0.00 | 51 | 1008.7 |
| 20260509193425 | 86 | 352 | 5.0 | 6.0 | 0.00 | 0.00 | 0.00 | 48 | 1009.0 |
| 20260509192922 | 86 | 10 | 0.0 | 0.0 | 0.00 | 0.00 | 0.00 | 50 | 1009.1 |
| 20260509192418 | 86 | 337 | 6.0 | 7.0 | 0.00 | 0.00 | 0.00 | 49 | 1008.8 |
| 20260509191913 | 86 | 231 | 3.0 | 3.0 | 0.00 | 0.00 | 0.00 | 49 | 1008.7 |
| 20260509191409 | 86 | 242 | 1.0 | 2.0 | 0.00 | 0.00 | 0.00 | 54 | 1009.2 |
| 20260509190905 | 86 | 253 | 0.0 | 0.0 | 0.00 | 0.00 | 0.00 | 53 | 1009.2 |
| 20260509190403 | 86 | 280 | 2.0 | 2.0 | 0.00 | 0.00 | 0.00 | 55 | 1009.1 |
| 20260509185900 | 86 | 263 | 2.0 | 4.0 | 0.00 | 0.00 | 0.00 | 55 | 1009.2 |
| 20260509185356 | 86 | 322 | 2.0 | 2.0 | 0.00 | 0.00 | 0.00 | 54 | 1009.1 |
| 20260509184853 | 86 | 258 | 1.0 | 1.0 | 0.00 | 0.00 | 0.00 | 54 | 1009.0 |
| 20260509184350 | 86 | 257 | 2.0 | 2.0 | 0.00 | 0.00 | 0.00 | 56 | 1009.2 |
| 20260509183848 | 86 | 342 | 0.0 | 0.0 | 0.00 | 0.00 | 0.00 | 55 | 1009.2 |
| 20260509183342 | 84 | 256 | 0.0 | 0.0 | 0.00 | 0.00 | 0.00 | 55 | 1009.2 |
| 20260509182838 | 84 | 336 | 7.0 | 8.0 | 0.00 | 0.00 | 0.00 | 56 | 1009.1 |
| 20260509182336 | 84 | 345 | 6.0 | 6.0 | 0.00 | 0.00 | 0.00 | 56 | 1009.4 |
| 20260509181833 | 84 | 290 | 0.0 | 0.0 | 0.00 | 0.00 | 0.00 | 57 | 1009.4 |
| 20260509181330 | 84 | 2 | 7.0 | 8.0 | 0.00 | 0.00 | 0.00 | 57 | 1009.4 |
| 20260509180827 | 84 | 294 | 3.0 | 3.0 | 0.00 | 0.00 | 0.00 | 57 | 1009.4 |
| 20260509180323 | 84 | 311 | 5.0 | 7.0 | 0.00 | 0.00 | 0.00 | 58 | 1009.5 |
| 20260509175820 | 84 | 337 | 5.0 | 7.0 | 0.00 | 0.00 | 0.00 | 57 | 1009.4 |
| 20260509175316 | 83 | 355 | 8.0 | 8.0 | 0.00 | 0.00 | 0.00 | 56 | 1009.6 |
| 20260509174812 | 83 | 335 | 8.0 | 9.0 | 0.00 | 0.00 | 0.00 | 57 | 1009.4 |
| 20260509174308 | 83 | 324 | 4.0 | 8.0 | 0.00 | 0.00 | 0.00 | 56 | 1009.4 |
| 20260509173804 | 83 | 322 | 8.0 | 9.0 | 0.00 | 0.00 | 0.00 | 56 | 1009.8 |
| 20260509173300 | 83 | 295 | 5.0 | 7.0 | 0.00 | 0.00 | 0.00 | 57 | 1009.8 |
| 20260509172756 | 84 | 338 | 9.0 | 10.0 | 0.00 | 0.00 | 0.00 | 56 | 1009.7 |
| 20260509172253 | 83 | 317 | 0.0 | 3.0 | 0.00 | 0.00 | 0.00 | 57 | 1009.8 |
| 20260509171748 | 82 | 338 | 6.0 | 8.0 | 0.00 | 0.00 | 0.00 | 57 | 1009.7 |
| 20260509171245 | 83 | 267 | 2.0 | 2.0 | 0.00 | 0.00 | 0.00 | 56 | 1010.1 |
| 20260509170741 | 83 | 325 | 0.0 | 2.0 | 0.00 | 0.00 | 0.00 | 56 | 1010.1 |
| 20260509170237 | 83 | 239 | 1.0 | 3.0 | 0.00 | 0.00 | 0.00 | 54 | 1010.1 |
| 20260509165736 | 82 | 242 | 3.0 | 4.0 | 0.00 | 0.00 | 0.00 | 55 | 1010.1 |
| 20260509165232 | 82 | 4 | 5.0 | 6.0 | 0.00 | 0.00 | 0.00 | 57 | 1010.1 |
| 20260509164728 | 82 | 322 | 7.0 | 9.0 | 0.00 | 0.00 | 0.00 | 57 | 1009.9 |
| 20260509164224 | 83 | 209 | 1.0 | 2.0 | 0.00 | 0.00 | 0.00 | 57 | 1010.3 |
| 20260509163721 | 82 | 323 | 0.0 | 0.0 | 0.00 | 0.00 | 0.00 | 58 | 1010.2 |
| 20260509163217 | 82 | 255 | 1.0 | 2.0 | 0.00 | 0.00 | 0.00 | 60 | 1010.2 |
| 20260509162715 | 81 | 331 | 1.0 | 3.0 | 0.00 | 0.00 | 0.00 | 60 | 1010.3 |
| 20260509162210 | 82 | 321 | 6.0 | 7.0 | 0.00 | 0.00 | 0.00 | 59 | 1009.8 |
| 20260509161706 | 81 | 248 | 1.0 | 2.0 | 0.00 | 0.00 | 0.00 | 62 | 1010.1 |
| 20260509161203 | 80 | 353 | 5.0 | 6.0 | 0.00 | 0.00 | 0.00 | 65 | 1010.1 |
| 20260509160658 | 80 | 353 | 5.0 | 7.0 | 0.00 | 0.00 | 0.00 | 65 | 1010.2 |
| 20260509160154 | 81 | 325 | 7.0 | 9.0 | 0.00 | 0.00 | 0.00 | 65 | 1009.9 |
| 20260509155650 | 80 | 355 | 3.0 | 8.0 | 0.00 | 0.00 | 0.00 | 66 | 1010.1 |
| 20260509155146 | 79 | 325 | 5.0 | 6.0 | 0.00 | 0.00 | 0.00 | 68 | 1010.1 |
| 20260509154642 | 79 | 273 | 3.0 | 4.0 | 0.00 | 0.00 | 0.00 | 68 | 1009.7 |
| 20260509154139 | 79 | 328 | 8.0 | 11.0 | 0.00 | 0.00 | 0.00 | 71 | 1009.8 |
| 20260509153636 | 79 | 354 | 6.0 | 8.0 | 0.00 | 0.00 | 0.00 | 70 | 1009.8 |
| 20260509153133 | 79 | 355 | 0.0 | 0.0 | 0.00 | 0.00 | 0.00 | 72 | 1010.2 |
| 20260509152628 | 78 | 259 | 1.0 | 1.0 | 0.00 | 0.00 | 0.00 | 72 | 1009.9 |
| 20260509152126 | 78 | 339 | 6.0 | 7.0 | 0.00 | 0.00 | 0.00 | 73 | 1009.9 |
| 20260509151622 | 77 | 259 | 0.0 | 0.0 | 0.00 | 0.00 | 0.00 | 74 | 1009.9 |
| 20260509151120 | 78 | 288 | 0.0 | 2.0 | 0.00 | 0.00 | 0.00 | 72 | 1009.8 |
| 20260509150618 | 77 | 310 | 5.0 | 6.0 | 0.00 | 0.00 | 0.00 | 74 | 1009.7 |
| 20260509150116 | 77 | 333 | 4.0 | 6.0 | 0.00 | 0.00 | 0.00 | 76 | 1010.1 |
| 20260509145611 | 76 | 327 | 5.0 | 7.0 | 0.00 | 0.00 | 0.00 | 78 | 1010.1 |
| 20260509145107 | 75 | 320 | 7.0 | 9.0 | 0.00 | 0.00 | 0.00 | 78 | 1009.9 |
| 20260509144604 | 75 | 350 | 6.0 | 8.0 | 0.00 | 0.00 | 0.00 | 79 | 1009.9 |
| 20260509144101 | 75 | 356 | 7.0 | 8.0 | 0.00 | 0.00 | 0.00 | 80 | 1009.5 |
| 20260509143558 | 75 | 348 | 7.0 | 8.0 | 0.00 | 0.00 | 0.00 | 80 | 1009.9 |
| 20260509143056 | 75 | 306 | 4.0 | 4.0 | 0.00 | 0.00 | 0.00 | 80 | 1009.9 |
| 20260509142551 | 74 | 350 | 8.0 | 9.0 | 0.00 | 0.00 | 0.00 | 81 | 1009.9 |
| 20260509142047 | 74 | 323 | 6.0 | 7.0 | 0.00 | 0.00 | 0.00 | 82 | 1009.8 |
| 20260509141543 | 74 | 348 | 6.0 | 8.0 | 0.00 | 0.00 | 0.00 | 83 | 1010.1 |
| 20260509141040 | 74 | 324 | 4.0 | 6.0 | 0.00 | 0.00 | 0.00 | 83 | 1009.8 |
| 20260509140537 | 73 | 283 | 5.0 | 7.0 | 0.00 | 0.00 | 0.00 | 83 | 1010.1 |
| 20260509140035 | 73 | 318 | 7.0 | 8.0 | 0.00 | 0.00 | 0.00 | 84 | 1009.7 |
| 20260509135532 | 73 | 339 | 5.0 | 7.0 | 0.00 | 0.00 | 0.00 | 84 | 1010.2 |
| 20260509135030 | 73 | 313 | 5.0 | 7.0 | 0.00 | 0.00 | 0.00 | 85 | 1010.2 |
| 20260509134526 | 72 | 327 | 7.0 | 8.0 | 0.00 | 0.00 | 0.00 | 85 | 1009.8 |
| 20260509134024 | 72 | 269 | 6.0 | 8.0 | 0.00 | 0.00 | 0.00 | 85 | 1009.9 |
| 20260509133520 | 72 | 301 | 2.0 | 3.0 | 0.00 | 0.00 | 0.00 | 85 | 1009.6 |
| 20260509133018 | 72 | 324 | 7.0 | 9.0 | 0.00 | 0.00 | 0.00 | 85 | 1009.7 |
| 20260509132517 | 73 | 341 | 3.0 | 4.0 | 0.00 | 0.00 | 0.00 | 87 | 1009.6 |
| 20260509132015 | 73 | 350 | 2.0 | 3.0 | 0.00 | 0.00 | 0.00 | 88 | 1009.5 |
| 20260509131510 | 73 | 313 | 4.0 | 6.0 | 0.00 | 0.00 | 0.00 | 88 | 1009.5 |
| 20260509131007 | 72 | 329 | 0.0 | 0.0 | 0.00 | 0.00 | 0.00 | 91 | 1009.4 |
| 20260509130502 | 72 | 327 | 0.0 | 0.0 | 0.00 | 0.00 | 0.00 | 92 | 1009.1 |
| 20260509130000 | 71 | 297 | 0.0 | 0.0 | 0.00 | 0.00 | 0.00 | 94 | 1009.3 |
| 20260509125456 | 71 | 284 | 0.0 | 0.0 | 0.00 | 0.00 | 0.00 | 96 | 1009.0 |
| 20260509124952 | 70 | 236 | 0.0 | 0.0 | 0.00 | 0.00 | 0.00 | 97 | 1009.3 |
| 20260509124449 | 69 | 210 | 0.0 | 0.0 | 0.00 | 0.00 | 0.00 | 97 | 1009.2 |
| 20260509123947 | 69 | 210 | 0.0 | 0.0 | 0.00 | 0.00 | 0.00 | 97 | 1009.4 |
| 20260509123444 | 69 | 210 | 0.0 | 0.0 | 0.00 | 0.00 | 0.00 | 97 | 1009.2 |
| 20260509122939 | 68 | 210 | 0.0 | 0.0 | 0.00 | 0.00 | 0.00 | 97 | 1009.0 |
| 20260509122437 | 68 | 209 | 0.0 | 0.0 | 0.00 | 0.00 | 0.00 | 97 | 1009.2 |
| 20260509121933 | 68 | 208 | 0.0 | 0.0 | 0.00 | 0.00 | 0.00 | 97 | 1009.5 |
| 20260509121430 | 68 | 209 | 0.0 | 0.0 | 0.00 | 0.00 | 0.00 | 97 | 1009.2 |
| 20260509120928 | 68 | 209 | 0.0 | 0.0 | 0.00 | 0.00 | 0.00 | 97 | 1009.5 |
| 20260509120426 | 68 | 209 | 0.0 | 0.0 | 0.00 | 0.00 | 0.00 | 97 | 1009.6 |
| 20260509115924 | 68 | 208 | 0.0 | 0.0 | 0.00 | 0.00 | 0.00 | 97 | 1009.5 |
| 20260509115421 | 69 | 235 | 0.0 | 0.0 | 0.00 | 0.00 | 0.00 | 97 | 1009.5 |
| 20260509114919 | 69 | 236 | 0.0 | 0.0 | 0.00 | 0.00 | 0.00 | 97 | 1009.7 |
| 20260509114417 | 69 | 242 | 0.0 | 0.0 | 0.00 | 0.00 | 0.00 | 97 | 1009.7 |
| 20260509113916 | 69 | 228 | 0.0 | 0.0 | 0.00 | 0.00 | 0.00 | 97 | 1009.6 |
| 20260509113413 | 69 | 242 | 0.0 | 0.0 | 0.00 | 0.00 | 0.00 | 97 | 1009.5 |
| 20260509112910 | 69 | 243 | 0.0 | 0.0 | 0.00 | 0.00 | 0.00 | 97 | 1009.4 |
| 20260509112407 | 69 | 246 | 0.0 | 0.0 | 0.00 | 0.00 | 0.00 | 97 | 1009.5 |
| 20260509111904 | 69 | 243 | 0.0 | 0.0 | 0.00 | 0.00 | 0.00 | 97 | 1009.2 |
| 20260509111400 | 69 | 242 | 0.0 | 0.0 | 0.00 | 0.00 | 0.00 | 98 | 1009.3 |
| 20260509110859 | 69 | 244 | 0.0 | 0.0 | 0.00 | 0.00 | 0.00 | 98 | 1009.0 |
| 20260509110354 | 69 | 245 | 0.0 | 0.0 | 0.00 | 0.00 | 0.00 | 98 | 1009.4 |
| 20260509105853 | 69 | 246 | 0.0 | 0.0 | 0.00 | 0.00 | 0.00 | 98 | 1009.0 |
| 20260509105350 | 69 | 313 | 1.0 | 2.0 | 0.00 | 0.00 | 0.00 | 98 | 1009.1 |
| 20260509104847 | 69 | 327 | 7.0 | 13.0 | 0.00 | 0.00 | 0.00 | 98 | 1009.2 |
| 20260509104343 | 69 | 327 | 1.0 | 2.0 | 0.00 | 0.00 | 0.00 | 98 | 1009.0 |
| 20260509103841 | 69 | 336 | 7.0 | 9.0 | 0.00 | 0.00 | 0.00 | 98 | 1008.7 |
| 20260509103338 | 69 | 227 | 0.0 | 0.0 | 0.00 | 0.00 | 0.00 | 98 | 1007.7 |
| 20260509102837 | 69 | 210 | 6.0 | 8.0 | 0.00 | 0.00 | 0.00 | 98 | 1007.4 |
| 20260509102334 | 69 | 192 | 6.0 | 9.0 | 0.00 | 0.00 | 0.00 | 98 | 1007.0 |
| 20260509101830 | 69 | 212 | 5.0 | 7.0 | 0.00 | 0.00 | 0.00 | 98 | 1007.1 |
| 20260509101326 | 69 | 256 | 10.0 | 14.0 | 0.00 | 0.00 | 0.00 | 98 | 1007.0 |
| 20260509100824 | 69 | 200 | 7.0 | 8.0 | 0.00 | 0.00 | 0.00 | 98 | 1007.0 |
| 20260509100321 | 69 | 193 | 3.0 | 4.0 | 0.00 | 0.00 | 0.00 | 98 | 1006.6 |
| 20260509095818 | 69 | 194 | 4.0 | 8.0 | 0.00 | 0.00 | 0.00 | 98 | 1006.7 |
| 20260509095315 | 69 | 190 | 6.0 | 8.0 | 0.00 | 0.00 | 0.00 | 98 | 1006.4 |
| 20260509094812 | 69 | 196 | 6.0 | 8.0 | 0.00 | 0.00 | 0.00 | 97 | 1006.6 |
| 20260509094309 | 69 | 206 | 6.0 | 8.0 | 0.00 | 0.00 | 0.00 | 97 | 1006.7 |
| 20260509093806 | 69 | 201 | 6.0 | 7.0 | 0.00 | 0.00 | 0.00 | 97 | 1007.0 |
| 20260509093303 | 69 | 181 | 8.0 | 10.0 | 0.00 | 0.00 | 0.00 | 97 | 1006.7 |
| 20260509092802 | 68 | 181 | 6.0 | 8.0 | 0.00 | 0.00 | 0.00 | 98 | 1006.7 |
| 20260509092300 | 68 | 221 | 11.0 | 14.0 | 0.00 | 0.00 | 0.00 | 97 | 1006.7 |
| 20260509091757 | 68 | 188 | 10.0 | 13.0 | 0.00 | 0.00 | 0.00 | 97 | 1006.9 |
| 20260509091254 | 68 | 201 | 8.0 | 10.0 | 0.00 | 0.00 | 0.00 | 97 | 1007.1 |
| 20260509090751 | 68 | 170 | 5.0 | 7.0 | 0.00 | 0.00 | 0.00 | 97 | 1007.2 |
| 20260509090248 | 68 | 198 | 3.0 | 9.0 | 0.00 | 0.00 | 0.00 | 97 | 1007.4 |
| 20260509085746 | 68 | 191 | 5.0 | 7.0 | 0.00 | 0.00 | 0.00 | 97 | 1007.6 |
| 20260509085243 | 68 | 197 | 2.0 | 3.0 | 0.00 | 0.00 | 0.00 | 97 | 1007.7 |
| 20260509084739 | 68 | 190 | 0.0 | 0.0 | 0.00 | 0.00 | 0.00 | 97 | 1007.8 |
| 20260509084236 | 68 | 194 | 2.0 | 3.0 | 0.00 | 0.00 | 0.00 | 97 | 1007.9 |
| 20260509083734 | 68 | 204 | 0.0 | 1.0 | 0.00 | 0.00 | 0.00 | 97 | 1007.8 |
| 20260509083231 | 68 | 177 | 0.0 | 0.0 | 0.00 | 0.00 | 0.00 | 97 | 1008.6 |
| 20260509082727 | 68 | 199 | 0.0 | 1.0 | 0.00 | 0.00 | 0.00 | 97 | 1008.7 |
| 20260509082224 | 68 | 192 | 0.0 | 0.0 | 0.00 | 0.00 | 0.00 | 96 | 1008.9 |
| 20260509081720 | 69 | 199 | 0.0 | 0.0 | 0.00 | 0.00 | 0.00 | 96 | 1009.0 |
| 20260509081218 | 69 | 212 | 0.0 | 1.0 | 0.00 | 0.00 | 0.00 | 96 | 1009.1 |
| 20260509080716 | 69 | 188 | 2.0 | 4.0 | 0.00 | 0.00 | 0.00 | 96 | 1009.4 |
| 20260509080214 | 69 | 210 | 0.0 | 1.0 | 0.00 | 0.00 | 0.00 | 97 | 1009.6 |
| 20260509075712 | 69 | 230 | 0.0 | 0.0 | 0.00 | 0.00 | 0.00 | 97 | 1010.6 |
| 20260509075209 | 69 | 232 | 0.0 | 0.0 | 0.00 | 0.00 | 0.00 | 97 | 1010.8 |
| 20260509074705 | 69 | 235 | 0.0 | 0.0 | 0.00 | 0.00 | 0.00 | 97 | 1011.0 |
| 20260509074203 | 69 | 251 | 0.0 | 0.0 | 0.00 | 0.00 | 0.00 | 97 | 1010.8 |
| 20260509073659 | 69 | 233 | 0.0 | 0.0 | 0.00 | 0.00 | 0.00 | 97 | 1010.8 |
| 20260509073156 | 69 | 237 | 0.0 | 0.0 | 0.00 | 0.00 | 0.00 | 98 | 1010.8 |
| 20260509072652 | 69 | 247 | 0.0 | 0.0 | 0.00 | 0.00 | 0.00 | 97 | 1010.9 |
| 20260509072149 | 69 | 248 | 0.0 | 0.0 | 0.00 | 0.00 | 0.00 | 97 | 1010.7 |
| 20260509071646 | 69 | 238 | 0.0 | 0.0 | 0.00 | 0.00 | 0.00 | 97 | 1010.5 |
| 20260509071143 | 69 | 238 | 0.0 | 0.0 | 0.00 | 0.00 | 0.00 | 98 | 1010.5 |
| 20260509070640 | 69 | 222 | 0.0 | 0.0 | 0.00 | 0.00 | 0.00 | 98 | 1010.4 |
| 20260509070136 | 69 | 210 | 0.0 | 0.0 | 0.00 | 0.00 | 0.00 | 98 | 1010.8 |
| 20260509065632 | 69 | 211 | 0.0 | 0.0 | 0.00 | 0.00 | 0.00 | 98 | 1010.7 |
| 20260509065128 | 69 | 301 | 0.0 | 0.0 | 0.00 | 0.00 | 0.00 | 98 | 1010.8 |
| 20260509064626 | 68 | 302 | 0.0 | 0.0 | 0.00 | 0.00 | 0.00 | 97 | 1010.9 |
| 20260509064124 | 68 | 308 | 0.0 | 0.0 | 0.00 | 0.00 | 0.00 | 97 | 1010.9 |
| 20260509063620 | 68 | 305 | 0.0 | 0.0 | 0.00 | 0.00 | 0.00 | 97 | 1010.6 |
| 20260509063117 | 68 | 323 | 0.0 | 0.0 | 0.00 | 0.00 | 0.00 | 97 | 1010.5 |
| 20260509062614 | 68 | 305 | 0.0 | 0.0 | 0.00 | 0.00 | 0.00 | 97 | 1010.5 |
| 20260509062111 | 68 | 314 | 0.0 | 0.0 | 0.00 | 0.00 | 0.00 | 97 | 1010.4 |
| 20260509061608 | 68 | 334 | 0.0 | 0.0 | 0.00 | 0.00 | 0.00 | 97 | 1010.4 |
| 20260509061105 | 68 | 0 | 0.0 | 0.0 | 0.00 | 0.00 | 0.00 | 97 | 1009.9 |
| 20260509060603 | 68 | 181 | 0.0 | 0.0 | 0.00 | 0.00 | 0.00 | 97 | 1009.9 |
| 20260509060058 | 68 | 181 | 0.0 | 0.0 | 0.00 | 0.00 | 0.00 | 97 | 1009.9 |
| 20260509055554 | 68 | 180 | 0.0 | 0.0 | 0.00 | 0.00 | 0.00 | 97 | 1009.8 |
| 20260509055050 | 68 | 182 | 0.0 | 0.0 | 0.00 | 0.00 | 0.00 | 96 | 1009.6 |
| 20260509054548 | 69 | 192 | 0.0 | 0.0 | 0.00 | 0.00 | 0.00 | 96 | 1009.4 |
| 20260509054045 | 69 | 190 | 0.0 | 0.0 | 0.00 | 0.00 | 0.00 | 96 | 1009.8 |
| 20260509053543 | 69 | 187 | 0.0 | 0.0 | 0.00 | 0.00 | 0.00 | 96 | 1009.5 |
| 20260509053040 | 69 | 187 | 0.0 | 0.0 | 0.00 | 0.00 | 0.00 | 96 | 1009.7 |
| 20260509052538 | 69 | 186 | 0.0 | 0.0 | 0.00 | 0.00 | 0.00 | 96 | 1009.9 |
| 20260509052036 | 69 | 184 | 0.0 | 0.0 | 0.00 | 0.00 | 0.00 | 96 | 1009.8 |
| 20260509051533 | 69 | 180 | 0.0 | 0.0 | 0.00 | 0.00 | 0.00 | 96 | 1009.7 |
| 20260509051030 | 69 | 186 | 0.0 | 0.0 | 0.00 | 0.00 | 0.00 | 95 | 1009.7 |
| 20260509050527 | 69 | 186 | 0.0 | 0.0 | 0.00 | 0.00 | 0.00 | 95 | 1009.7 |
| 20260509050023 | 69 | 180 | 0.0 | 0.0 | 0.00 | 0.00 | 0.00 | 95 | 1009.7 |
| 20260509045520 | 69 | 180 | 0.0 | 0.0 | 0.00 | 0.00 | 0.00 | 95 | 1010.2 |
| 20260509045012 | 69 | 180 | 0.0 | 0.0 | 0.00 | 0.00 | 0.00 | 94 | 1009.9 |
| 20260509044510 | 69 | 180 | 0.0 | 0.0 | 0.00 | 0.00 | 0.00 | 94 | 1010.2 |
| 20260509044007 | 69 | 180 | 0.0 | 0.0 | 0.00 | 0.00 | 0.00 | 94 | 1010.2 |
| 20260509043503 | 69 | 180 | 0.0 | 0.0 | 0.00 | 0.00 | 0.00 | 94 | 1009.9 |
| 20260509042958 | 70 | 180 | 0.0 | 0.0 | 0.00 | 0.00 | 0.00 | 93 | 1009.9 |
| 20260509042455 | 70 | 180 | 0.0 | 0.0 | 0.00 | 0.00 | 0.00 | 93 | 1009.9 |
| 20260509041951 | 70 | 180 | 0.0 | 0.0 | 0.00 | 0.00 | 0.00 | 93 | 1009.6 |
| 20260509041448 | 70 | 180 | 0.0 | 0.0 | 0.00 | 0.00 | 0.00 | 92 | 1009.6 |
| 20260509040946 | 71 | 180 | 0.0 | 0.0 | 0.00 | 0.00 | 0.00 | 92 | 1009.4 |
| 20260509040444 | 71 | 180 | 0.0 | 0.0 | 0.00 | 0.00 | 0.00 | 92 | 1009.6 |
| 20260509035940 | 71 | 180 | 0.0 | 0.0 | 0.00 | 0.00 | 0.00 | 92 | 1009.5 |
| 20260509035437 | 71 | 180 | 0.0 | 0.0 | 0.00 | 0.00 | 0.00 | 91 | 1009.7 |
| 20260509034933 | 71 | 180 | 0.0 | 0.0 | 0.00 | 0.00 | 0.00 | 91 | 1009.7 |
| 20260509034432 | 71 | 180 | 0.0 | 0.0 | 0.00 | 0.00 | 0.00 | 91 | 1009.6 |
| 20260509033928 | 71 | 180 | 0.0 | 0.0 | 0.00 | 0.00 | 0.00 | 91 | 1009.6 |
| 20260509033426 | 71 | 181 | 0.0 | 0.0 | 0.00 | 0.00 | 0.00 | 91 | 1009.6 |
| 20260509032922 | 71 | 185 | 0.0 | 0.0 | 0.00 | 0.00 | 0.00 | 91 | 1009.4 |
| 20260509032420 | 71 | 191 | 0.0 | 0.0 | 0.00 | 0.00 | 0.00 | 90 | 1009.3 |
| 20260509031917 | 71 | 185 | 0.0 | 0.0 | 0.00 | 0.00 | 0.00 | 90 | 1009.3 |
| 20260509031415 | 71 | 168 | 0.0 | 0.0 | 0.00 | 0.00 | 0.00 | 90 | 1009.1 |
| 20260509030912 | 71 | 151 | 0.0 | 1.0 | 0.00 | 0.00 | 0.00 | 90 | 1008.8 |
| 20260509030410 | 71 | 191 | 0.0 | 0.0 | 0.00 | 0.00 | 0.00 | 90 | 1008.9 |
| 20260509025907 | 71 | 185 | 0.0 | 0.0 | 0.00 | 0.00 | 0.00 | 90 | 1009.1 |
| 20260509025402 | 71 | 180 | 0.0 | 0.0 | 0.00 | 0.00 | 0.00 | 89 | 1009.0 |
| 20260509024857 | 71 | 181 | 0.0 | 0.0 | 0.00 | 0.00 | 0.00 | 89 | 1009.1 |
| 20260509024354 | 71 | 181 | 0.0 | 0.0 | 0.00 | 0.00 | 0.00 | 89 | 1008.8 |
| 20260509023851 | 72 | 181 | 0.0 | 0.0 | 0.00 | 0.00 | 0.00 | 89 | 1009.0 |
| 20260509023348 | 72 | 181 | 0.0 | 0.0 | 0.00 | 0.00 | 0.00 | 89 | 1009.0 |
| 20260509022844 | 72 | 181 | 0.0 | 0.0 | 0.00 | 0.00 | 0.00 | 89 | 1008.8 |
| 20260509022342 | 72 | 181 | 0.0 | 0.0 | 0.00 | 0.00 | 0.00 | 88 | 1008.7 |
| 20260509021839 | 72 | 188 | 0.0 | 0.0 | 0.00 | 0.00 | 0.00 | 88 | 1008.7 |
| 20260509021336 | 72 | 184 | 0.0 | 0.0 | 0.00 | 0.00 | 0.00 | 88 | 1008.5 |
| 20260509020834 | 72 | 184 | 0.0 | 0.0 | 0.00 | 0.00 | 0.00 | 88 | 1008.4 |
| 20260509020332 | 72 | 184 | 0.0 | 0.0 | 0.00 | 0.00 | 0.00 | 88 | 1008.7 |
| 20260509015829 | 72 | 165 | 0.0 | 0.0 | 0.00 | 0.00 | 0.00 | 88 | 1008.3 |
| 20260509015327 | 72 | 171 | 0.0 | 0.0 | 0.00 | 0.00 | 0.00 | 88 | 1008.4 |
| 20260509014823 | 72 | 181 | 0.0 | 0.0 | 0.00 | 0.00 | 0.00 | 88 | 1008.1 |
| 20260509014320 | 72 | 181 | 0.0 | 0.0 | 0.00 | 0.00 | 0.00 | 87 | 1008.3 |
| 20260509013817 | 72 | 191 | 0.0 | 0.0 | 0.00 | 0.00 | 0.00 | 87 | 1008.3 |
| 20260509013313 | 72 | 191 | 0.0 | 0.0 | 0.00 | 0.00 | 0.00 | 87 | 1008.3 |
| 20260509012809 | 72 | 191 | 0.0 | 0.0 | 0.00 | 0.00 | 0.00 | 87 | 1008.4 |
| 20260509012307 | 72 | 192 | 0.0 | 0.0 | 0.00 | 0.00 | 0.00 | 87 | 1008.1 |
| 20260509011803 | 72 | 192 | 0.0 | 0.0 | 0.00 | 0.00 | 0.00 | 86 | 1008.2 |
| 20260509011301 | 73 | 193 | 0.0 | 0.0 | 0.00 | 0.00 | 0.00 | 86 | 1008.4 |
| 20260509010758 | 73 | 191 | 0.0 | 0.0 | 0.00 | 0.00 | 0.00 | 86 | 1008.4 |
| 20260509010255 | 73 | 191 | 0.0 | 0.0 | 0.00 | 0.00 | 0.00 | 86 | 1008.0 |
| 20260509005753 | 73 | 181 | 0.0 | 0.0 | 0.00 | 0.00 | 0.00 | 86 | 1007.8 |
| 20260509005251 | 73 | 184 | 0.0 | 0.0 | 0.00 | 0.00 | 0.00 | 86 | 1007.6 |
| 20260509004749 | 73 | 197 | 0.0 | 0.0 | 0.00 | 0.00 | 0.00 | 86 | 1007.9 |
| 20260509004247 | 73 | 206 | 0.0 | 0.0 | 0.00 | 0.00 | 0.00 | 85 | 1007.9 |
| 20260509003745 | 73 | 185 | 0.0 | 0.0 | 0.00 | 0.00 | 0.00 | 85 | 1007.9 |
| 20260509003242 | 73 | 184 | 0.0 | 0.0 | 0.00 | 0.00 | 0.00 | 85 | 1008.0 |
| 20260509002739 | 73 | 184 | 0.0 | 0.0 | 0.00 | 0.00 | 0.00 | 84 | 1008.0 |
| 20260509002237 | 74 | 192 | 0.0 | 0.0 | 0.00 | 0.00 | 0.00 | 84 | 1007.9 |
| 20260509001735 | 74 | 190 | 0.0 | 0.0 | 0.00 | 0.00 | 0.00 | 83 | 1007.5 |
| 20260509001230 | 74 | 162 | 0.0 | 0.0 | 0.00 | 0.00 | 0.00 | 83 | 1007.8 |
| 20260509000728 | 74 | 188 | 0.0 | 0.0 | 0.00 | 0.00 | 0.00 | 83 | 1007.6 |
| 20260509000226 | 74 | 195 | 0.0 | 0.0 | 0.00 | 0.00 | 0.00 | 83 | 1007.8 |
| 20260508235722 | 74 | 183 | 0.0 | 0.0 | 0.00 | 0.00 | 0.00 | 83 | 1007.9 |
| 20260508235218 | 74 | 163 | 1.0 | 3.0 | 0.00 | 0.00 | 0.00 | 83 | 1007.7 |
| 20260508234716 | 74 | 197 | 0.0 | 0.0 | 0.00 | 0.00 | 0.00 | 83 | 1007.8 |
| 20260508234212 | 75 | 156 | 0.0 | 1.0 | 0.00 | 0.00 | 0.00 | 83 | 1008.0 |
| 20260508233706 | 74 | 191 | 0.0 | 0.0 | 0.00 | 0.00 | 0.00 | 82 | 1007.8 |
| 20260508233204 | 74 | 185 | 0.0 | 0.0 | 0.00 | 0.00 | 0.00 | 82 | 1007.9 |
| 20260508232701 | 75 | 185 | 0.0 | 0.0 | 0.00 | 0.00 | 0.00 | 82 | 1007.6 |
| 20260508232157 | 75 | 179 | 0.0 | 0.0 | 0.00 | 0.00 | 0.00 | 83 | 1007.8 |
| 20260508231655 | 74 | 177 | 0.0 | 0.0 | 0.00 | 0.00 | 0.00 | 82 | 1007.8 |
| 20260508231152 | 74 | 201 | 2.0 | 3.0 | 0.00 | 0.00 | 0.00 | 82 | 1008.0 |
| 20260508230649 | 74 | 189 | 1.0 | 2.0 | 0.00 | 0.00 | 0.00 | 82 | 1008.0 |
| 20260508230145 | 75 | 187 | 5.0 | 6.0 | 0.00 | 0.00 | 0.00 | 81 | 1007.7 |
| 20260508225643 | 75 | 168 | 1.0 | 1.0 | 0.00 | 0.00 | 0.00 | 82 | 1008.0 |
| 20260508225139 | 74 | 143 | 0.0 | 1.0 | 0.00 | 0.00 | 0.00 | 82 | 1007.9 |
| 20260508224637 | 74 | 169 | 0.0 | 1.0 | 0.00 | 0.00 | 0.00 | 83 | 1007.8 |
| 20260508224134 | 74 | 158 | 4.0 | 4.0 | 0.00 | 0.00 | 0.00 | 82 | 1007.9 |
| 20260508223632 | 74 | 196 | 6.0 | 7.0 | 0.00 | 0.00 | 0.00 | 81 | 1008.0 |
| 20260508223129 | 74 | 193 | 0.0 | 0.0 | 0.00 | 0.00 | 0.00 | 82 | 1008.1 |
| 20260508222626 | 74 | 187 | 0.0 | 0.0 | 0.00 | 0.00 | 0.00 | 81 | 1008.0 |
| 20260508222123 | 75 | 175 | 2.0 | 2.0 | 0.00 | 0.00 | 0.00 | 80 | 1008.2 |
| 20260508221619 | 75 | 110 | 2.0 | 2.0 | 0.00 | 0.00 | 0.00 | 80 | 1007.9 |
| 20260508221115 | 74 | 206 | 0.0 | 0.0 | 0.00 | 0.00 | 0.00 | 81 | 1008.2 |
| 20260508220612 | 74 | 189 | 0.0 | 0.0 | 0.00 | 0.00 | 0.00 | 81 | 1008.2 |
| 20260508220109 | 74 | 165 | 2.0 | 4.0 | 0.00 | 0.00 | 0.00 | 80 | 1008.5 |
| 20260508215605 | 75 | 180 | 0.0 | 0.0 | 0.00 | 0.00 | 0.00 | 79 | 1008.5 |
| 20260508215102 | 74 | 182 | 0.0 | 0.0 | 0.00 | 0.00 | 0.00 | 79 | 1008.7 |